QPF
0.00 0.00 0.01 0.01 0.01 0.00 0.00 0.01 0.01 0.02 0.02 0.03 0.03 0.03 0.02 0.02 0.03 0.05 0.07 0.09 0.11 0.12 0.12 0.11 0.09 0.08 0.08 0.09 0.12 0.13 0.12 0.13 0.14 0.15 0.15 0.14 0.13 0.12 0.12 0.12 0.12 0.14 0.16 0.18
0.00 0.00 0.00 0.00 0.00 0.00 0.01 0.01 0.01 0.01 0.02 0.02 0.01 0.01 0.01 0.00 0.01 0.02 0.04 0.05 0.06 0.06 0.06 0.06 0.06 0.06 0.07 0.08 0.09 0.10 0.10 0.10 0.08 0.10 0.11 0.13 0.14 0.13 0.11 0.12 0.12 0.12 0.13 0.14
0.00 0.00 0.00 0.00 0.01 0.00 0.00 0.00 0.00 0.00 0.01 0.01 0.00 0.00 0.00 0.00 0.00 0.01 0.01 0.02 0.02 0.02 0.03 0.04 0.05 0.06 0.06 0.07 0.07 0.07 0.07 0.06 0.05 0.06 0.07 0.08 0.10 0.12 0.12 0.11 0.12 0.12 0.11 0.10
0.00 0.00 0.00 0.01 0.00 0.00 0.00 0.00 0.00 0.00 0.00 0.00 0.00 0.00 0.00 0.00 0.00 0.00 0.00 0.01 0.01 0.02 0.02 0.03 0.03 0.04 0.05 0.06 0.06 0.05 0.05 0.06 0.06 0.06 0.06 0.07 0.07 0.07 0.08 0.08 0.08 0.10 0.10 0.10
0.00 0.00 0.00 0.00 0.00 0.00 0.00 0.00 0.00 0.00 0.00 0.00 0.00 0.00 0.00 0.00 0.00 0.00 0.00 0.00 0.00 0.00 0.01 0.01 0.01 0.02 0.02 0.03 0.05 0.05 0.05 0.05 0.05 0.05 0.05 0.06 0.06 0.07 0.07 0.06 0.05 0.05 0.05 0.06
0.00 0.00 0.00 0.00 0.00 0.00 0.00 0.00 0.00 0.00 0.00 0.00 0.00 0.00 0.00 0.00 0.00 0.00 0.00 0.00 0.00 0.00 0.00 0.00 0.00 0.00 0.00 0.00 0.01 0.01 0.02 0.03 0.04 0.04 0.03 0.03 0.04 0.05 0.06 0.06 0.05 0.04 0.04 0.04
0.00 0.00 0.00 0.00 0.00 0.00 0.00 0.00 0.00 0.00 0.00 0.00 0.00 0.00 0.00 0.00 0.00 0.00 0.00 0.00 0.00 0.00 0.00 0.00 0.00 0.00 0.00 0.00 0.00 0.00 0.00 0.00 0.01 0.01 0.02 0.02 0.03 0.03 0.03 0.03 0.04 0.04 0.04 0.03
0.00 0.00 0.00 0.00 0.00 0.00 0.00 0.00 0.00 0.00 0.00 0.00 0.00 0.00 0.00 0.00 0.00 0.00 0.00 0.00 0.00 0.00 0.00 0.00 0.00 0.00 0.00 0.00 0.00 0.00 0.00 0.00 0.00 0.00 0.00 0.01 0.01 0.01 0.01 0.01 0.01 0.02 0.02 0.02
0.00 0.00 0.00 0.00 0.00 0.00 0.00 0.00 0.00 0.00 0.00 0.00 0.00 0.00 0.00 0.00 0.00 0.00 0.00 0.00 0.00 0.00 0.00 0.00 0.00 0.00 0.00 0.00 0.00 0.00 0.00 0.00 0.00 0.00 0.00 0.00 0.00 0.00 0.00 0.00 0.00 0.00 0.01 0.02
0.00 0.00 0.00 0.00 0.00 0.00 0.00 0.00 0.00 0.00 0.00 0.00 0.00 0.00 0.00 0.00 0.00 0.00 0.00 0.00 0.00 0.00 0.00 0.00 0.00 0.00 0.00 0.00 0.00 0.00 0.00 0.00 0.00 0.00 0.00 0.00 0.00 0.00 0.00 0.00 0.00 0.00 0.00 0.01
0.00 0.00 0.00 0.00 0.00 0.00 0.00 0.00 0.00 0.00 0.00 0.00 0.00 0.00 0.00 0.00 0.00 0.00 0.00 0.00 0.00 0.00 0.00 0.00 0.00 0.00 0.00 0.00 0.00 0.00 0.00 0.00 0.00 0.00 0.00 0.00 0.00 0.00 0.00 0.00 0.00 0.00 0.00 0.00
0.00 0.00 0.00 0.00 0.00 0.00 0.00 0.00 0.00 0.00 0.00 0.00 0.00 0.00 0.00 0.00 0.00 0.00 0.00 0.00 0.00 0.00 0.00 0.00 0.00 0.00 0.00 0.00 0.00 0.00 0.00 0.00 0.00 0.00 0.00 0.00 0.00 0.00 0.00 0.00 0.00 0.00 0.00 0.01
0.00 0.00 0.00 0.00 0.00 0.00 0.00 0.00 0.00 0.00 0.00 0.00 0.00 0.00 0.00 0.00 0.00 0.00 0.00 0.00 0.00 0.00 0.00 0.00 0.00 0.00 0.00 0.00 0.00 0.00 0.00 0.00 0.00 0.00 0.00 0.00 0.00 0.00 0.00 0.00 0.00 0.00 0.00 0.00
0.00 0.00 0.00 0.00 0.00 0.00 0.00 0.00 0.00 0.00 0.00 0.00 0.00 0.00 0.00 0.00 0.00 0.00 0.00 0.00 0.00 0.00 0.00 0.00 0.00 0.00 0.00 0.00 0.00 0.00 0.00 0.00 0.00 0.00 0.00 0.00 0.00 0.01 0.01 0.01 0.00 0.00 0.00 0.00
0.00 0.00 0.00 0.00 0.00 0.00 0.00 0.00 0.00 0.00 0.00 0.00 0.00 0.00 0.00 0.00 0.00 0.00 0.00 0.00 0.00 0.00 0.00 0.00 0.00 0.00 0.00 0.00 0.00 0.00 0.00 0.00 0.00 0.00 0.00 0.00 0.00 0.01 0.01 0.01 0.01 0.00 0.00 0.00
0.00 0.00 0.00 0.00 0.00 0.00 0.00 0.00 0.00 0.00 0.00 0.00 0.00 0.00 0.00 0.00 0.00 0.00 0.00 0.00 0.00 0.00 0.00 0.00 0.00 0.00 0.00 0.00 0.00 0.00 0.00 0.00 0.00 0.00 0.00 0.00 0.00 0.01 0.01 0.01 0.01 0.01 0.01 0.01
0.00 0.00 0.00 0.00 0.00 0.00 0.00 0.00 0.00 0.00 0.00 0.00 0.00 0.00 0.00 0.00 0.00 0.00 0.00 0.00 0.00 0.00 0.00 0.00 0.00 0.00 0.00 0.00 0.00 0.00 0.00 0.00 0.00 0.00 0.00 0.00 0.00 0.00 0.01 0.01 0.01 0.01 0.01 0.02
0.00 0.00 0.00 0.00 0.00 0.00 0.00 0.00 0.00 0.00 0.00 0.00 0.00 0.00 0.00 0.00 0.00 0.00 0.00 0.00 0.00 0.00 0.00 0.00 0.00 0.00 0.00 0.00 0.00 0.00 0.00 0.00 0.00 0.00 0.00 0.00 0.00 0.00 0.00 0.01 0.01 0.01 0.01 0.01
0.00 0.00 0.00 0.00 0.00 0.00 0.00 0.00 0.00 0.00 0.00 0.00 0.00 0.00 0.00 0.00 0.00 0.00 0.00 0.00 0.00 0.00 0.00 0.00 0.00 0.00 0.00 0.00 0.00 0.00 0.00 0.00 0.00 0.00 0.00 0.00 0.00 0.00 0.00 0.00 0.01 0.01 0.01 0.01
0.00 0.00 0.00 0.00 0.00 0.00 0.00 0.00 0.00 0.00 0.00 0.00 0.00 0.00 0.00 0.00 0.00 0.00 0.00 0.00 0.00 0.00 0.00 0.00 0.00 0.00 0.00 0.00 0.00 0.00 0.00 0.00 0.00 0.00 0.00 0.00 0.00 0.00 0.00 0.00 0.00 0.00 0.01 0.01
0.00 0.00 0.00 0.00 0.00 0.00 0.00 0.00 0.00 0.00 0.00 0.00 0.00 0.00 0.00 0.00 0.00 0.00 0.00 0.00 0.00 0.00 0.00 0.00 0.00 0.00 0.00 0.00 0.00 0.00 0.00 0.00 0.00 0.00 0.00 0.00 0.00 0.00 0.00 0.00 0.00 0.00 0.01 0.01
0.00 0.00 0.00 0.00 0.00 0.00 0.00 0.00 0.00 0.00 0.00 0.00 0.00 0.00 0.00 0.00 0.00 0.00 0.00 0.00 0.00 0.00 0.00 0.00 0.00 0.00 0.00 0.00 0.00 0.00 0.00 0.00 0.00 0.00 0.00 0.00 0.00 0.00 0.00 0.00 0.00 0.00 0.00 0.01
0.00 0.00 0.00 0.00 0.00 0.00 0.00 0.00 0.00 0.00 0.00 0.00 0.00 0.00 0.00 0.00 0.00 0.00 0.00 0.00 0.00 0.00 0.00 0.00 0.00 0.00 0.00 0.00 0.00 0.00 0.00 0.00 0.00 0.00 0.00 0.00 0.00 0.00 0.00 0.00 0.00 0.00 0.00 0.01
0.00 0.00 0.00 0.00 0.00 0.00 0.00 0.00 0.00 0.00 0.00 0.00 0.00 0.00 0.00 0.00 0.00 0.00 0.00 0.00 0.00 0.00 0.00 0.00 0.00 0.00 0.00 0.00 0.00 0.00 0.00 0.00 0.00 0.00 0.00 0.00 0.00 0.00 0.00 0.00 0.00 0.00 0.00 0.00
0.00 0.00 0.00 0.00 0.00 0.00 0.00 0.00 0.00 0.00 0.00 0.00 0.00 0.00 0.00 0.00 0.00 0.00 0.00 0.00 0.00 0.00 0.00 0.00 0.00 0.00 0.00 0.00 0.00 0.00 0.00 0.00 0.00 0.00 0.00 0.00 0.00 0.00 0.00 0.00 0.00 0.00 0.00 0.00
0.00 0.00 0.00 0.00 0.00 0.00 0.00 0.00 0.00 0.00 0.00 0.00 0.00 0.00 0.00 0.00 0.00 0.00 0.00 0.00 0.00 0.00 0.00 0.00 0.00 0.00 0.00 0.00 0.00 0.00 0.00 0.00 0.00 0.00 0.00 0.00 0.00 0.00 0.00 0.00 0.00 0.00 0.00 0.01
0.00 0.00 0.00 0.00 0.00 0.00 0.00 0.00 0.00 0.00 0.00 0.00 0.00 0.00 0.00 0.00 0.00 0.00 0.00 0.00 0.00 0.00 0.00 0.00 0.00 0.00 0.00 0.00 0.00 0.00 0.00 0.00 0.00 0.00 0.00 0.00 0.00 0.00 0.00 0.00 0.00 0.00 0.00 0.01
MSLP
1014.71 1014.43 1014.18 1013.97 1013.81 1013.71 1013.67 1013.69 1013.78 1013.93 1014.13 1014.37 1014.64 1014.91 1015.17 1015.39 1015.57 1015.69 1015.74 1015.73 1015.67 1015.56 1015.44 1015.31 1015.20 1015.12 1015.10 1015.13 1015.21 1015.36 1015.54 1015.77 1016.01 1016.27 1016.53 1016.78 1017.00 1017.19 1017.33 1017.42 1017.47 1017.46 1017.40 1017.32
1014.94 1014.61 1014.27 1013.94 1013.64 1013.40 1013.22 1013.13 1013.13 1013.24 1013.44 1013.73 1014.09 1014.50 1014.93 1015.35 1015.73 1016.05 1016.31 1016.48 1016.57 1016.60 1016.58 1016.53 1016.48 1016.44 1016.42 1016.44 1016.49 1016.59 1016.72 1016.87 1017.04 1017.23 1017.42 1017.59 1017.75 1017.87 1017.95 1017.98 1017.96 1017.89 1017.78 1017.63
1015.26 1014.84 1014.38 1013.92 1013.48 1013.09 1012.78 1012.59 1012.51 1012.58 1012.78 1013.10 1013.54 1014.05 1014.60 1015.15 1015.68 1016.15 1016.54 1016.85 1017.06 1017.20 1017.28 1017.32 1017.33 1017.34 1017.35 1017.38 1017.43 1017.51 1017.60 1017.71 1017.83 1017.96 1018.09 1018.21 1018.32 1018.39 1018.44 1018.43 1018.38 1018.27 1018.12 1017.93
1015.64 1015.10 1014.52 1013.92 1013.35 1012.84 1012.43 1012.14 1012.01 1012.05 1012.24 1012.59 1013.07 1013.64 1014.26 1014.90 1015.50 1016.05 1016.53 1016.91 1017.21 1017.43 1017.60 1017.71 1017.80 1017.87 1017.93 1017.99 1018.06 1018.13 1018.21 1018.29 1018.38 1018.47 1018.56 1018.64 1018.72 1018.77 1018.80 1018.78 1018.72 1018.60 1018.43 1018.21
1016.02 1015.37 1014.67 1013.96 1013.28 1012.67 1012.18 1011.84 1011.67 1011.68 1011.88 1012.24 1012.74 1013.33 1013.98 1014.64 1015.27 1015.84 1016.35 1016.78 1017.12 1017.40 1017.63 1017.81 1017.97 1018.11 1018.24 1018.35 1018.45 1018.54 1018.62 1018.68 1018.74 1018.80 1018.87 1018.93 1018.98 1019.03 1019.05 1019.04 1018.98 1018.86 1018.68 1018.46
1016.32 1015.58 1014.79 1013.99 1013.24 1012.56 1012.03 1011.65 1011.47 1011.48 1011.67 1012.03 1012.53 1013.12 1013.76 1014.40 1015.03 1015.60 1016.10 1016.54 1016.91 1017.23 1017.51 1017.76 1017.99 1018.19 1018.38 1018.55 1018.69 1018.80 1018.88 1018.93 1018.98 1019.01 1019.05 1019.09 1019.13 1019.17 1019.19 1019.19 1019.14 1019.03 1018.87 1018.64
1016.47 1015.67 1014.82 1013.97 1013.18 1012.48 1011.93 1011.56 1011.37 1011.38 1011.57 1011.92 1012.41 1012.98 1013.59 1014.20 1014.79 1015.34 1015.83 1016.27 1016.66 1017.01 1017.34 1017.64 1017.93 1018.21 1018.45 1018.67 1018.84 1018.96 1019.04 1019.09 1019.11 1019.12 1019.13 1019.14 1019.17 1019.20 1019.22 1019.22 1019.18 1019.10 1018.95 1018.73
1016.41 1015.58 1014.71 1013.86 1013.07 1012.39 1011.85 1011.48 1011.30 1011.32 1011.51 1011.85 1012.31 1012.85 1013.42 1014.01 1014.57 1015.09 1015.58 1016.02 1016.43 1016.81 1017.18 1017.54 1017.89 1018.21 1018.50 1018.75 1018.94 1019.07 1019.14 1019.17 1019.16 1019.14 1019.11 1019.10 1019.10 1019.11 1019.13 1019.13 1019.11 1019.03 1018.90 1018.69
1016.12 1015.29 1014.45 1013.63 1012.88 1012.24 1011.73 1011.39 1011.23 1011.24 1011.42 1011.74 1012.18 1012.69 1013.24 1013.79 1014.34 1014.86 1015.34 1015.80 1016.24 1016.66 1017.08 1017.48 1017.86 1018.22 1018.54 1018.80 1018.99 1019.11 1019.17 1019.17 1019.13 1019.07 1019.01 1018.96 1018.94 1018.93 1018.93 1018.93 1018.90 1018.84 1018.72 1018.53
1015.62 1014.83 1014.05 1013.30 1012.62 1012.03 1011.57 1011.26 1011.10 1011.11 1011.28 1011.57 1011.98 1012.46 1012.99 1013.54 1014.08 1014.61 1015.12 1015.62 1016.09 1016.55 1017.00 1017.43 1017.84 1018.21 1018.53 1018.79 1018.96 1019.07 1019.10 1019.07 1019.00 1018.91 1018.82 1018.74 1018.69 1018.66 1018.65 1018.63 1018.60 1018.54 1018.42 1018.25
1014.98 1014.27 1013.58 1012.92 1012.31 1011.79 1011.37 1011.08 1010.93 1010.92 1011.06 1011.33 1011.70 1012.16 1012.68 1013.23 1013.79 1014.35 1014.89 1015.43 1015.94 1016.44 1016.91 1017.36 1017.77 1018.14 1018.44 1018.68 1018.83 1018.91 1018.91 1018.86 1018.77 1018.66 1018.55 1018.46 1018.39 1018.34 1018.31 1018.28 1018.24 1018.18 1018.06 1017.90
1014.31 1013.69 1013.10 1012.53 1012.01 1011.54 1011.16 1010.88 1010.72 1010.68 1010.78 1011.00 1011.35 1011.79 1012.30 1012.86 1013.44 1014.04 1014.63 1015.20 1015.76 1016.28 1016.77 1017.21 1017.61 1017.95 1018.23 1018.43 1018.56 1018.61 1018.60 1018.55 1018.46 1018.35 1018.24 1018.15 1018.08 1018.02 1017.98 1017.93 1017.88 1017.80 1017.68 1017.52
1013.68 1013.17 1012.68 1012.20 1011.75 1011.33 1010.96 1010.67 1010.48 1010.40 1010.45 1010.63 1010.93 1011.35 1011.86 1012.43 1013.05 1013.68 1014.31 1014.92 1015.50 1016.04 1016.52 1016.95 1017.32 1017.63 1017.87 1018.04 1018.15 1018.20 1018.19 1018.15 1018.08 1018.00 1017.92 1017.85 1017.79 1017.73 1017.68 1017.62 1017.54 1017.44 1017.31 1017.15
1013.18 1012.76 1012.36 1011.95 1011.55 1011.15 1010.78 1010.46 1010.22 1010.08 1010.08 1010.20 1010.47 1010.87 1011.37 1011.96 1012.60 1013.27 1013.93 1014.57 1015.16 1015.70 1016.17 1016.57 1016.91 1017.18 1017.39 1017.54 1017.64 1017.70 1017.72 1017.72 1017.70 1017.67 1017.63 1017.59 1017.55 1017.50 1017.44 1017.36 1017.26 1017.13 1016.98 1016.80
1012.81 1012.48 1012.14 1011.78 1011.39 1010.99 1010.59 1010.23 1009.93 1009.73 1009.66 1009.74 1009.97 1010.35 1010.84 1011.44 1012.11 1012.80 1013.48 1014.14 1014.74 1015.27 1015.72 1016.10 1016.40 1016.64 1016.83 1016.97 1017.08 1017.17 1017.24 1017.29 1017.33 1017.37 1017.39 1017.39 1017.37 1017.33 1017.26 1017.15 1017.02 1016.86 1016.68 1016.49
1012.56 1012.28 1011.98 1011.64 1011.25 1010.82 1010.38 1009.96 1009.60 1009.33 1009.20 1009.23 1009.43 1009.79 1010.29 1010.90 1011.58 1012.29 1012.99 1013.66 1014.26 1014.77 1015.21 1015.56 1015.85 1016.07 1016.25 1016.40 1016.54 1016.67 1016.79 1016.91 1017.03 1017.12 1017.20 1017.24 1017.24 1017.20 1017.11 1016.97 1016.80 1016.60 1016.39 1016.18
1012.36 1012.12 1011.84 1011.49 1011.07 1010.60 1010.10 1009.62 1009.19 1008.88 1008.70 1008.69 1008.87 1009.21 1009.72 1010.33 1011.03 1011.76 1012.48 1013.15 1013.75 1014.26 1014.69 1015.03 1015.30 1015.52 1015.71 1015.88 1016.05 1016.23 1016.41 1016.60 1016.77 1016.93 1017.05 1017.12 1017.13 1017.07 1016.95 1016.78 1016.56 1016.33 1016.08 1015.85
1012.18 1011.95 1011.65 1011.28 1010.82 1010.29 1009.74 1009.20 1008.73 1008.36 1008.15 1008.12 1008.29 1008.64 1009.15 1009.78 1010.49 1011.24 1011.97 1012.65 1013.25 1013.77 1014.19 1014.53 1014.81 1015.04 1015.25 1015.45 1015.65 1015.88 1016.11 1016.34 1016.56 1016.75 1016.89 1016.97 1016.97 1016.89 1016.74 1016.53 1016.28 1016.01 1015.74 1015.50
1011.96 1011.72 1011.40 1010.98 1010.48 1009.90 1009.30 1008.72 1008.22 1007.83 1007.61 1007.57 1007.74 1008.10 1008.63 1009.28 1010.00 1010.76 1011.51 1012.20 1012.82 1013.34 1013.77 1014.12 1014.41 1014.66 1014.88 1015.11 1015.35 1015.60 1015.86 1016.12 1016.35 1016.55 1016.69 1016.75 1016.73 1016.63 1016.45 1016.20 1015.92 1015.63 1015.35 1015.11
1011.68 1011.42 1011.07 1010.62 1010.07 1009.47 1008.84 1008.24 1007.72 1007.34 1007.12 1007.10 1007.28 1007.66 1008.20 1008.86 1009.61 1010.38 1011.13 1011.84 1012.46 1012.99 1013.44 1013.80 1014.10 1014.37 1014.61 1014.85 1015.11 1015.36 1015.63 1015.88 1016.11 1016.29 1016.40 1016.44 1016.39 1016.26 1016.05 1015.79 1015.50 1015.20 1014.93 1014.71
1011.34 1011.07 1010.70 1010.22 1009.66 1009.04 1008.41 1007.81 1007.31 1006.95 1006.76 1006.76 1006.97 1007.36 1007.92 1008.59 1009.34 1010.11 1010.87 1011.57 1012.20 1012.74 1013.19 1013.56 1013.88 1014.15 1014.40 1014.65 1014.90 1015.14 1015.39 1015.61 1015.81 1015.95 1016.03 1016.03 1015.95 1015.79 1015.58 1015.32 1015.04 1014.76 1014.52 1014.34
1010.98 1010.70 1010.33 1009.85 1009.29 1008.68 1008.08 1007.52 1007.05 1006.73 1006.58 1006.61 1006.85 1007.26 1007.82 1008.49 1009.23 1009.99 1010.73 1011.42 1012.04 1012.57 1013.02 1013.40 1013.72 1013.99 1014.24 1014.47 1014.69 1014.91 1015.12 1015.30 1015.44 1015.54 1015.57 1015.54 1015.44 1015.28 1015.07 1014.83 1014.58 1014.35 1014.16 1014.02
1010.60 1010.34 1009.98 1009.52 1009.00 1008.44 1007.88 1007.38 1006.97 1006.71 1006.61 1006.68 1006.94 1007.36 1007.92 1008.57 1009.28 1010.01 1010.72 1011.38 1011.97 1012.48 1012.92 1013.29 1013.59 1013.85 1014.08 1014.29 1014.48 1014.66 1014.82 1014.95 1015.04 1015.09 1015.09 1015.03 1014.92 1014.76 1014.58 1014.38 1014.18 1014.00 1013.87 1013.77
1010.21 1009.99 1009.66 1009.26 1008.79 1008.30 1007.82 1007.40 1007.07 1006.88 1006.84 1006.96 1007.24 1007.66 1008.20 1008.82 1009.49 1010.17 1010.83 1011.44 1011.99 1012.47 1012.88 1013.22 1013.50 1013.74 1013.95 1014.13 1014.28 1014.42 1014.53 1014.61 1014.66 1014.67 1014.63 1014.56 1014.45 1014.31 1014.16 1014.00 1013.86 1013.74 1013.66 1013.61
1009.79 1009.61 1009.34 1009.01 1008.62 1008.22 1007.84 1007.52 1007.29 1007.18 1007.20 1007.37 1007.67 1008.09 1008.60 1009.19 1009.80 1010.42 1011.02 1011.57 1012.07 1012.51 1012.88 1013.19 1013.45 1013.67 1013.84 1013.99 1014.12 1014.21 1014.28 1014.33 1014.34 1014.32 1014.26 1014.18 1014.08 1013.96 1013.84 1013.73 1013.64 1013.56 1013.52 1013.50
1009.28 1009.16 1008.96 1008.70 1008.41 1008.12 1007.86 1007.65 1007.53 1007.51 1007.61 1007.82 1008.15 1008.57 1009.06 1009.60 1010.17 1010.73 1011.26 1011.76 1012.20 1012.59 1012.92 1013.20 1013.44 1013.63 1013.79 1013.92 1014.02 1014.09 1014.13 1014.14 1014.12 1014.08 1014.02 1013.93 1013.84 1013.74 1013.64 1013.56 1013.49 1013.44 1013.41 1013.40
1008.63 1008.56 1008.43 1008.26 1008.08 1007.90 1007.76 1007.68 1007.68 1007.76 1007.94 1008.22 1008.58 1009.01 1009.49 1010.00 1010.52 1011.02 1011.51 1011.95 1012.35 1012.70 1013.00 1013.26 1013.48 1013.66 1013.81 1013.92 1014.00 1014.06 1014.08 1014.07 1014.04 1013.98 1013.90 1013.81 1013.71 1013.61 1013.52 1013.44 1013.38 1013.33 1013.29 1013.25
Thickness
5504 5508 5511 5514 5518 5520 5518 5517 5515 5520 5519 5523 5520 5517 5515 5512 5510 5509 5508 5508 5508 5509 5510 5513 5515 5517 5519 5521 5524 5527 5529 5530 5530 5532 5534 5536 5538 5540 5541 5543 5544 5545 5545 5545
5508 5513 5513 5517 5521 5523 5524 5522 5520 5522 5524 5525 5520 5517 5514 5511 5510 5509 5507 5507 5507 5507 5508 5509 5510 5513 5515 5516 5518 5520 5521 5522 5523 5525 5526 5528 5529 5530 5532 5533 5533 5533 5533 5532
5502 5504 5518 5521 5528 5527 5528 5528 5527 5527 5530 5524 5521 5520 5517 5514 5511 5510 5508 5507 5506 5505 5504 5506 5507 5508 5509 5510 5512 5514 5515 5515 5516 5517 5518 5518 5519 5520 5520 5520 5521 5521 5520 5520
5496 5506 5518 5532 5534 5532 5531 5532 5530 5532 5530 5525 5525 5521 5518 5515 5512 5510 5509 5506 5504 5502 5502 5502 5503 5504 5505 5506 5507 5508 5508 5508 5508 5509 5509 5508 5508 5508 5508 5509 5509 5508 5508 5507
5493 5498 5510 5530 5533 5531 5532 5535 5536 5532 5529 5524 5521 5520 5518 5517 5514 5512 5509 5506 5503 5501 5500 5499 5499 5500 5501 5501 5500 5500 5499 5498 5498 5499 5499 5498 5498 5498 5498 5498 5497 5495 5494 5493
5495 5506 5520 5540 5539 5535 5536 5536 5540 5534 5529 5522 5522 5521 5523 5520 5515 5511 5508 5504 5501 5499 5497 5496 5495 5495 5495 5494 5493 5492 5490 5490 5490 5490 5489 5488 5487 5486 5486 5485 5484 5483 5481 5479
5495 5498 5512 5529 5532 5536 5532 5542 5543 5536 5531 5525 5524 5526 5524 5519 5514 5511 5507 5504 5501 5498 5495 5493 5491 5490 5489 5487 5485 5484 5484 5483 5482 5481 5479 5478 5477 5475 5474 5473 5472 5470 5469 5467
5491 5497 5518 5534 5531 5532 5537 5539 5539 5535 5532 5527 5524 5522 5519 5516 5513 5509 5505 5502 5499 5495 5491 5489 5487 5485 5483 5480 5479 5478 5476 5475 5473 5471 5470 5469 5466 5465 5463 5461 5460 5458 5456 5453
5504 5523 5530 5529 5531 5536 5534 5535 5536 5532 5531 5527 5523 5520 5517 5514 5509 5506 5503 5499 5495 5491 5487 5484 5482 5480 5477 5474 5473 5471 5469 5466 5464 5462 5459 5457 5455 5453 5451 5448 5446 5444 5441 5439
5503 5519 5524 5526 5527 5531 5532 5533 5534 5532 5528 5525 5522 5519 5514 5510 5506 5502 5498 5494 5490 5486 5482 5479 5476 5473 5471 5468 5466 5464 5461 5458 5455 5452 5449 5446 5443 5441 5438 5435 5432 5429 5426 5423
5504 5518 5524 5533 5531 5532 5532 5530 5529 5528 5526 5523 5520 5517 5512 5508 5504 5500 5496 5491 5486 5482 5479 5475 5471 5468 5465 5461 5458 5454 5451 5447 5444 5440 5437 5434 5431 5428 5426 5422 5418 5415 5412 5407
5523 5529 5526 5534 5536 5533 5530 5529 5527 5525 5523 5520 5518 5515 5510 5505 5501 5497 5492 5487 5483 5478 5475 5470 5466 5462 5458 5455 5451 5447 5443 5439 5434 5430 5427 5424 5420 5417 5414 5410 5407 5402 5398 5393
5525 5528 5524 5528 5528 5529 5527 5527 5524 5522 5521 5517 5514 5511 5507 5502 5497 5493 5488 5484 5480 5475 5470 5465 5460 5456 5452 5448 5444 5439 5435 5430 5425 5421 5417 5413 5409 5405 5402 5399 5394 5389 5385 5381
5519 5518 5520 5525 5525 5526 5523 5523 5520 5518 5516 5513 5510 5506 5501 5497 5492 5488 5485 5481 5476 5470 5465 5460 5455 5451 5447 5442 5437 5432 5426 5421 5416 5411 5406 5402 5397 5393 5389 5385 5382 5377 5373 5368
5516 5515 5518 5520 5519 5518 5517 5515 5512 5510 5508 5506 5503 5499 5496 5492 5488 5485 5480 5476 5470 5464 5459 5454 5449 5445 5440 5435 5429 5424 5418 5413 5407 5402 5397 5391 5386 5381 5377 5372 5368 5364 5360 5356
5515 5512 5510 5510 5511 5511 5509 5508 5506 5505 5502 5499 5496 5494 5491 5488 5483 5478 5473 5468 5462 5459 5454 5448 5444 5439 5433 5428 5422 5416 5410 5405 5399 5393 5387 5381 5376 5370 5365 5360 5355 5351 5347 5344
5505 5507 5506 5505 5506 5505 5503 5502 5501 5500 5496 5493 5491 5488 5483 5479 5474 5469 5465 5461 5457 5453 5448 5442 5437 5432 5426 5420 5413 5407 5401 5395 5390 5383 5377 5371 5365 5359 5354 5348 5344 5339 5335 5331
5505 5506 5504 5502 5500 5499 5497 5496 5494 5492 5489 5488 5483 5479 5474 5472 5469 5464 5458 5452 5446 5442 5438 5434 5428 5423 5416 5411 5405 5398 5392 5385 5379 5373 5367 5361 5355 5349 5343 5338 5333 5328 5325 5321
5498 5497 5497 5495 5494 5492 5491 5489 5487 5485 5482 5478 5475 5472 5469 5466 5462 5457 5450 5443 5438 5433 5430 5424 5419 5413 5407 5401 5395 5389 5382 5375 5369 5363 5357 5352 5345 5339 5333 5328 5322 5318 5314 5311
5491 5490 5489 5488 5486 5484 5483 5482 5479 5476 5473 5470 5467 5463 5460 5457 5452 5446 5440 5435 5432 5428 5422 5416 5409 5403 5397 5391 5385 5378 5372 5365 5359 5353 5347 5340 5335 5329 5323 5318 5312 5308 5304 5300
5482 5481 5480 5479 5478 5476 5475 5473 5470 5467 5464 5460 5457 5455 5451 5447 5442 5436 5431 5426 5422 5416 5411 5406 5399 5393 5387 5381 5376 5368 5361 5355 5349 5342 5336 5330 5324 5318 5313 5307 5302 5298 5294 5290
5472 5471 5471 5470 5468 5466 5464 5461 5459 5457 5453 5450 5447 5444 5439 5435 5430 5426 5422 5419 5414 5408 5401 5395 5390 5384 5379 5373 5365 5358 5352 5345 5339 5332 5326 5320 5314 5308 5302 5296 5291 5287 5283 5278
5462 5461 5460 5459 5457 5454 5452 5449 5447 5445 5443 5441 5438 5434 5430 5427 5422 5417 5413 5408 5403 5399 5392 5386 5381 5376 5370 5362 5355 5348 5342 5335 5329 5323 5316 5310 5304 5298 5292 5287 5282 5277 5272 5268
5453 5451 5449 5447 5443 5441 5440 5439 5436 5434 5431 5429 5427 5425 5420 5415 5411 5408 5405 5400 5394 5389 5382 5377 5372 5367 5360 5351 5344 5338 5331 5325 5319 5312 5306 5301 5294 5288 5282 5277 5272 5268 5263 5259
5444 5441 5438 5435 5433 5433 5431 5427 5423 5420 5418 5416 5414 5412 5409 5406 5402 5398 5392 5387 5384 5378 5371 5366 5361 5355 5348 5340 5334 5328 5321 5315 5309 5303 5297 5291 5285 5279 5274 5268 5263 5259 5255 5251
5434 5432 5430 5428 5426 5424 5420 5416 5413 5410 5408 5405 5403 5399 5396 5393 5389 5385 5380 5375 5371 5366 5360 5354 5349 5344 5336 5330 5324 5318 5312 5306 5299 5294 5288 5282 5277 5271 5266 5261 5256 5251 5247 5244
5425 5422 5419 5417 5416 5413 5409 5406 5403 5401 5399 5396 5393 5389 5384 5380 5376 5372 5367 5362 5358 5353 5348 5343 5338 5332 5326 5320 5314 5308 5302 5296 5291 5285 5279 5274 5268 5263 5258 5254 5249 5245 5241 5238